Regional Weather Roundup
Issued by NWS Lake Charles, LA

Home | Current Version | Previous Version | Text Only | Print | Product List | Glossary On
Versions: 1 2 3 4 5 6 7 8 9 10 11 12 13 14 15 16 17 18 19 20 21 22 23 24 25 26 27 28 29 30 31 32 33 34 35 36 37 38 39 40 41 42 43 44 45 46 47 48 49 50
303
ASUS44 KLCH 270910
RWRLCH
REGIONAL WEATHER ROUNDUP
NATIONAL WEATHER SERVICE LAKE CHARLES LA
400 AM CDT TUE JUN 27 2017

Note: "fair" indicates few or no clouds below 12,000 feet with no
significant weather and/or obstructions to visibility.


ACROSS SOUTHEAST TEXAS

CITY           SKY/WX    TMP DP  RH WIND       PRES   REMARKS
BEAUMONT       MOCLDY   N/A N/A N/A MISG      30.00R
BEAUMONT CITY  FAIR     N/A N/A N/A MISG      30.01S
ORANGE         PTSUNNY   75  74  98 CALM      30.03R
JASPER           N/A     74  73  97 CALM      30.05F
$$

ACROSS CENTRAL LOUISIANA

CITY           SKY/WX    TMP DP  RH WIND       PRES   REMARKS
LEESVILLE      CLOUDY    73  71  91 CALM      30.02F
FULLERTON      FAIR      72  70  93 CALM      30.01F
ALEXANDRIA INT CLOUDY    72  70  93 CALM      30.01F
ESLER FIELD    CLOUDY    70  70 100 CALM      30.03F
DERIDDER       PTSUNNY   74  73  96 N3        30.05F FOG
OAKDALE        CLOUDY    73  73  97 CALM      30.03S FOG
OPELOUSAS      CLOUDY    75  74  97 CALM      30.02F
$$

ACROSS SOUTHWEST AND SOUTH CENTRAL LOUISIANA

CITY           SKY/WX    TMP DP  RH WIND       PRES   REMARKS
SULPHUR        PTSUNNY   76  75  96 NE5       30.02S
LAKE CHARLES   CLOUDY    75  75 100 NE6       30.01S
CHENNAULT INT  CLOUDY    74  73  96 CALM      30.02S
CAMERON PHI    CLOUDY    79  73  83 SE9       29.99S
DEQUINCY       PTSUNNY   72  71  99 CALM      30.03S
JENNINGS       FAIR     N/A N/A N/A CALM      30.02S
LAFAYETTE      CLOUDY    76  75  97 N5        30.02F
NEW IBERIA     CLOUDY    76  72  87 NE5       30.02S
ABBEVILLE      FAIR      73  73 100 CALM      30.01F FOG
PATTERSON      CLOUDY    74  73  97 CALM      30.01F
SALT POINT       N/A     75  74  96 CALM      29.99F
$$

SELECTED SITES ACROSS THE REGION

CITY           SKY/WX    TMP DP  RH WIND       PRES   REMARKS
HOUSTON BUSH   CLOUDY    75  72  90 NE6       30.00S
HOUSTON HOBBY  CLOUDY    77  73  87 E3        29.99S
GALVESTON      LGT RAIN  78  76  93 E8        29.99F
COLLEGE STAT   CLOUDY    73  72  96 NE3       30.00F
CONROE         CLOUDY    73  71  93 N3        30.02R
HUNTSVILLE     CLOUDY    74  70  87 CALM      30.02F
LUFKIN         CLOUDY    73  71  93 CALM      30.02F
SHREVEPORT     CLOUDY    72  67  84 CALM      30.03F
MONROE         CLOUDY    69  66  90 CALM      30.05F
NATCHEZ MS     CLOUDY    70  67  90 CALM      30.05F
BATON ROUGE    CLOUDY    74  70  87 CALM      30.02F
N.O. INTL ARPT CLOUDY    76  74  93 CALM      30.02S
SLIDELL        CLOUDY    73  70  90 CALM      30.02S
$$

MARINE REPORTS

STATION/POSITION TIME  SKY/WX   TEMP    WIND        PRES    VSBY
                                AIR SEA DIR/SP/G
                 (UTC)          (F)     (DEG/KT/KT) (MB)    (MI)
BUOY 30 S HIGH I 0850            78 82  100/ 16/ 17 1015.1F
WVE H/P(F/S)=  3/ 4

SEA RIM ST PARK  0800            78     140/  9/ 12 1016.2F
PORT ARTHUR      0848            78 84  130/  5/  8 1016.1R
SABINE PASS N    0848            80 85  120/ 10/ 12 1017.1S
TEXAS POINT      NOT AVBL
CALCASIEU PASS   0848            79 84  150/  9/ 11   N/A
LK CHARLES BEACH 0848            75 82              1016.9R
MARSH ISLAND     NOT AVBL
FRESH WATER LOCK 0848            77 85  120/  4/  6 1015.7F
AMERADA PASS     0848            76 81   60/  3/  4 1015.8F
$$




USA.gov is the U.S. government's official web portal to all federal, state and local government web resources and services.